Voltar ao catálogo

ATLAS 5 CENTAUR DEB

AtivoHEO
NORAD 44670·DEBRIS·🇺🇸 United States

Lançado Oct 17, 2018 de Cape Canaveral Space Force Station

Loading…

Próximas Passagens (próximas 24 horas)

TLE

AtualizadoSource: Space-Track

Época: Sep 13, 2026, 11:58 UTC

1 44670U 18079AG  26256.49891772 -.00000177  00000-0  00000+0 0  9999
2 44670  13.3891  27.5354 4649728 331.4676   9.4315  1.82910800 48670

Acompanhe ATLAS 5 CENTAUR DEB em tempo real com AllMySat

Download on the App Store